Location: Newark
(45.4422°N, 16.2769°E)
Time: 03:47:15
(UTC+00:00)

Vanguard 2 - Pass Details

Date: 08 December 2019
Orbit: 553 x 2938 km, 32.9° (Epoch: 19 January)

Event Time Altitude Azimuth Distance (km) Brightness Sun altitude
Rises 00:57:17 0° 229° (SW) 6,160 - -55.0°
Reaches altitude 10° 01:01:21 10° 223° (SW) 5,377 - -54.4°
Maximum altitude 01:16:41 44° 159° (SSE) 3,695 - -52.0°
Exits shadow 01:18:06 43° 149° (SSE) 3,713 10.7 -51.8°
Drops below altitude 10° 01:32:00 10° 96° (E) 5,392 12.2 -49.5°
Sets 01:36:04 0° 90° (E) 6,181 12.8 -48.8°
